Date,Installs,Update checks
2021-08-31,4,1
2021-09-01,2,1
2021-09-02,1,2
2021-09-03,4,1
2021-09-04,11,3
2021-09-05,3,3
2021-09-06,2,6
2021-09-07,2,9
2021-09-08,3,5
2021-09-09,1,7
2021-09-10,2,8
2021-09-11,2,11
2021-09-12,4,9
2021-09-13,2,12
2021-09-14,1,13
2021-09-15,1,10
2021-09-16,3,13
2021-09-17,3,12
2021-09-18,6,18
2021-09-19,2,16
2021-09-20,2,21
2021-09-21,1,21
2021-09-22,0,20
2021-09-23,5,22
2021-09-24,2,19
2021-09-25,3,19
2021-09-26,1,26
2021-09-27,9,19
2021-09-28,3,26
2021-09-29,4,21
2021-09-30,1,23
2021-10-01,2,27
2021-10-02,5,26
2021-10-03,3,26
2021-10-04,3,22
2021-10-05,3,27
2021-10-06,3,31
2021-10-07,3,30
2021-10-08,0,27
2021-10-09,2,28
2021-10-10,0,30
2021-10-11,1,31
2021-10-12,2,29
2021-10-13,0,34
2021-10-14,2,26
2021-10-15,2,28
2021-10-16,2,34
2021-10-17,2,33
2021-10-18,2,31
2021-10-19,2,34
2021-10-20,1,30
2021-10-21,1,34
2021-10-22,2,33
2021-10-23,4,31
2021-10-24,2,31
2021-10-25,1,37
2021-10-26,2,40
2021-10-27,0,38
2021-10-28,0,39
2021-10-29,1,40
2021-10-30,2,39
2021-10-31,1,38
2021-11-01,2,38
2021-11-02,1,42
2021-11-03,1,44
2021-11-04,2,43
2021-11-05,5,38
2021-11-06,0,46
2021-11-07,2,40
2021-11-08,2,43
2021-11-09,0,44
2021-11-10,0,40
2021-11-11,1,39
2021-11-12,2,40
2021-11-13,1,43
2021-11-14,0,45
2021-11-15,4,36
2021-11-16,1,48
2021-11-17,2,40
2021-11-18,2,45
2021-11-19,1,43
2021-11-20,3,41
2021-11-21,4,44
2021-11-22,4,48
2021-11-23,1,56
2021-11-24,3,41
2021-11-25,4,49
2021-11-26,2,43
2021-11-27,2,46
2021-11-28,2,46
2021-11-29,4,54
2021-11-30,3,53
2021-12-01,4,55
2021-12-02,0,52
2021-12-03,2,48
2021-12-04,0,52
2021-12-05,5,55
2021-12-06,1,55
2021-12-07,6,53
2021-12-08,6,62
2021-12-09,2,61
2021-12-10,3,53
2021-12-11,2,58
2021-12-12,1,58
2021-12-13,2,58
2021-12-14,2,59
2021-12-15,1,58
2021-12-16,4,64
2021-12-17,3,54
2021-12-18,2,66
2021-12-19,2,57
2021-12-20,4,64
2021-12-21,5,57
2021-12-22,1,58
2021-12-23,4,59
2021-12-24,0,65
2021-12-25,4,55
2021-12-26,5,64
2021-12-27,3,66
2021-12-28,1,66
2021-12-29,3,68
2021-12-30,0,67
2021-12-31,3,62
2022-01-01,2,58
2022-01-02,1,64
2022-01-03,2,72
2022-01-04,3,68
2022-01-05,1,69
2022-01-06,1,57
2022-01-07,4,67
2022-01-08,3,65
2022-01-09,5,8
2022-01-10,5,0
2022-01-11,1,74
2022-01-12,2,67
2022-01-13,1,75
2022-01-14,3,70
2022-01-15,3,69
2022-01-16,2,71
2022-01-17,4,61
2022-01-18,4,68
2022-01-19,2,70
2022-01-20,3,65
2022-01-21,2,73
2022-01-22,4,64
2022-01-23,3,75
2022-01-24,1,78
2022-01-25,3,77
2022-01-26,6,77
2022-01-27,3,85
2022-01-28,2,72
2022-01-29,2,78
2022-01-30,3,78
2022-01-31,2,81
2022-02-01,4,80
2022-02-02,0,77
2022-02-03,6,98
2022-02-04,6,78
2022-02-05,1,77
2022-02-06,1,91
2022-02-07,4,87
2022-02-08,2,97
2022-02-09,4,83
2022-02-10,1,96
2022-02-11,2,86
2022-02-12,1,90
2022-02-13,4,86
2022-02-14,2,99
2022-02-15,2,87
2022-02-16,1,92
2022-02-17,1,95
2022-02-18,3,97
2022-02-19,1,89
2022-02-20,3,89
2022-02-21,4,94
2022-02-22,2,94
2022-02-23,7,88
2022-02-24,0,99
2022-02-25,3,83
2022-02-26,2,90
2022-02-27,1,96
2022-02-28,3,91
2022-03-01,3,97
2022-03-02,2,89
2022-03-03,6,97
2022-03-04,0,96
2022-03-05,2,93
2022-03-06,3,87
2022-03-07,4,94
2022-03-08,3,99
2022-03-09,4,97
2022-03-10,7,89
2022-03-11,2,102
2022-03-12,1,92
2022-03-13,1,91
2022-03-14,0,93
2022-03-15,4,97
2022-03-16,3,97
2022-03-17,1,93
2022-03-18,3,97
2022-03-19,3,78
2022-03-20,2,89
2022-03-21,4,93
2022-03-22,2,97
2022-03-23,3,94
2022-03-24,1,90
2022-03-25,0,94
2022-03-26,2,92
2022-03-27,2,97
2022-03-28,2,96
2022-03-29,0,104
2022-03-30,2,102
2022-03-31,0,101
2022-04-01,1,100
2022-04-02,1,85
2022-04-03,8,102
2022-04-04,1,108
2022-04-05,4,102
2022-04-06,3,99
2022-04-07,2,102
2022-04-08,0,102
2022-04-09,2,103
2022-04-10,0,105
2022-04-11,1,102
2022-04-12,2,104
2022-04-13,1,101
2022-04-14,3,107
2022-04-15,0,102
2022-04-16,4,94
2022-04-17,1,87
2022-04-18,0,101
2022-04-19,0,99
2022-04-20,2,99
2022-04-21,2,93
2022-04-22,1,101
2022-04-23,4,97
2022-04-24,8,94
2022-04-25,1,101
2022-04-26,2,107
2022-04-27,0,99
2022-04-28,0,100
2022-04-29,3,101
2022-04-30,2,100
2022-05-01,2,103
2022-05-02,1,111
2022-05-03,2,110
2022-05-04,2,112
2022-05-05,0,106
2022-05-06,2,107
2022-05-07,4,109
2022-05-08,0,103
2022-05-09,4,104
2022-05-10,1,115
2022-05-11,3,103
2022-05-12,2,106
2022-05-13,4,112
2022-05-14,3,100
2022-05-15,3,105
2022-05-16,2,115
2022-05-17,3,98
2022-05-18,2,118
2022-05-19,4,105
2022-05-20,6,108
2022-05-21,4,111
2022-05-22,2,115
2022-05-23,2,115
2022-05-24,0,121
2022-05-25,4,112
2022-05-26,2,109
2022-05-27,7,124
2022-05-28,4,113
2022-05-29,1,117
2022-05-30,3,109
2022-05-31,1,107
2022-06-01,1,125
2022-06-02,6,115
2022-06-03,3,113
2022-06-04,3,115
2022-06-05,2,124
2022-06-06,4,109
2022-06-07,1,112
2022-06-08,4,129
2022-06-09,5,128
2022-06-10,3,134
2022-06-11,2,123
2022-06-12,1,133
2022-06-13,0,128
2022-06-14,2,124
2022-06-15,2,125
2022-06-16,2,127
2022-06-17,2,133
2022-06-18,5,131
2022-06-19,2,130
2022-06-20,5,140
2022-06-21,5,121
2022-06-22,2,131
2022-06-23,6,123
2022-06-24,4,138
2022-06-25,4,135
2022-06-26,4,124
2022-06-27,5,146
2022-06-28,6,147
2022-06-29,7,136
2022-06-30,4,150
2022-07-01,6,138
2022-07-02,3,153
2022-07-03,4,153
2022-07-04,7,147
2022-07-05,9,138
2022-07-06,8,158
2022-07-07,6,162
2022-07-08,5,152
2022-07-09,10,152
2022-07-10,5,153
2022-07-11,5,156
2022-07-12,4,157
2022-07-13,3,157
2022-07-14,3,151
2022-07-15,8,159
2022-07-16,3,151
2022-07-17,9,154
2022-07-18,3,162
2022-07-19,7,173
2022-07-20,6,179
2022-07-21,10,173
2022-07-22,7,167
2022-07-23,4,176
2022-07-24,8,150
2022-07-25,1,186
2022-07-26,10,179
2022-07-27,6,172
2022-07-28,6,196
2022-07-29,5,184
2022-07-30,7,152
2022-07-31,7,167
2022-08-01,4,177
2022-08-02,4,182
2022-08-03,2,184
2022-08-04,5,171
2022-08-05,4,185
2022-08-06,64,193
2022-08-07,54,224
2022-08-08,21,244
2022-08-09,7,239
2022-08-10,10,250
2022-08-11,5,229
2022-08-12,7,238
2022-08-13,9,247
2022-08-14,10,240
2022-08-15,8,248
2022-08-16,5,253
2022-08-17,5,256
2022-08-18,5,242
2022-08-19,6,251
2022-08-20,4,241
2022-08-21,5,258
2022-08-22,4,245
2022-08-23,4,278
2022-08-24,2,266
2022-08-25,3,263
2022-08-26,4,265
2022-08-27,1,234
2022-08-28,6,240
2022-08-29,2,266
2022-08-30,2,274
2022-08-31,1,260
2022-09-01,4,250
2022-09-02,0,258
2022-09-03,4,266
2022-09-04,1,242
2022-09-05,4,268
2022-09-06,4,276
2022-09-07,38,273
2022-09-08,6,271
2022-09-09,6,284
2022-09-10,7,250
2022-09-11,8,264
2022-09-12,3,278
2022-09-13,7,290
2022-09-14,3,287
2022-09-15,2,272
2022-09-16,4,287
2022-09-17,3,268
2022-09-18,3,275
2022-09-19,5,277
2022-09-20,4,270
2022-09-21,3,279
2022-09-22,1,269
2022-09-23,0,271
2022-09-24,2,263
2022-09-25,4,261
2022-09-26,3,287
2022-09-27,3,275
2022-09-28,3,280
2022-09-29,4,280
2022-09-30,12,278
2022-10-01,0,273
2022-10-02,5,272
2022-10-03,173,308
2022-10-04,32,368
2022-10-05,15,347
2022-10-06,9,342
2022-10-07,7,368
2022-10-08,9,346
2022-10-09,9,367
2022-10-10,4,354
2022-10-11,6,349
2022-10-12,8,353
2022-10-13,30,368
2022-10-14,5,389
2022-10-15,7,348
2022-10-16,9,370
2022-10-17,7,372
2022-10-18,6,360
2022-10-19,5,371
2022-10-20,7,368
2022-10-21,1,374
2022-10-22,3,351
2022-10-23,5,337
2022-10-24,7,357
2022-10-25,5,354
2022-10-26,3,358
2022-10-27,3,355
2022-10-28,5,350
2022-10-29,6,356
2022-10-30,4,349
2022-10-31,7,359
2022-11-01,3,342
2022-11-02,3,370
2022-11-03,3,351
2022-11-04,3,386
2022-11-05,5,347
2022-11-06,4,339
2022-11-07,2,348
2022-11-08,4,349
2022-11-09,3,347
2022-11-10,0,348
2022-11-11,3,350
2022-11-12,6,342
2022-11-13,5,345
2022-11-14,3,354
2022-11-15,6,353
2022-11-16,5,352
2022-11-17,3,292
2022-11-18,4,317
2022-11-19,1,291
2022-11-20,4,309
2022-11-21,4,308
2022-11-22,1,324
2022-11-23,1,328
2022-11-24,1,344
2022-11-25,2,324
2022-11-26,4,316
2022-11-27,4,315
2022-11-28,3,324
2022-11-29,2,319
2022-11-30,7,320
2022-12-01,1,319
2022-12-02,3,319
2022-12-03,4,311
2022-12-04,4,295
2022-12-05,3,305
2022-12-06,2,311
2022-12-07,1,315
2022-12-08,3,327
2022-12-09,0,306
2022-12-10,4,325
2022-12-11,3,305
2022-12-12,6,319
2022-12-13,3,291
2022-12-14,4,284
2022-12-15,3,318
2022-12-16,4,309
2022-12-17,9,276
2022-12-18,5,287
2022-12-19,1,300
2022-12-20,1,296
2022-12-21,1,290
2022-12-22,2,305
2022-12-23,5,320
2022-12-24,2,261
2022-12-25,2,279
2022-12-26,2,296
2022-12-27,4,308
2022-12-28,0,320
2022-12-29,3,302
2022-12-30,4,320
2022-12-31,5,271
2023-01-01,4,302
2023-01-02,5,351
2023-01-03,2,356
2023-01-04,3,374
2023-01-05,6,364
2023-01-06,2,358
2023-01-07,4,348
2023-01-08,3,352
2023-01-09,3,356
2023-01-10,5,348
2023-01-11,6,372
2023-01-12,4,358
2023-01-13,0,365
2023-01-14,4,341
2023-01-15,2,370
2023-01-16,3,362
2023-01-17,6,368
2023-01-18,4,378
2023-01-19,12,363
2023-01-20,6,393
2023-01-21,1,358
2023-01-22,3,356
2023-01-23,4,377
2023-01-24,0,368
2023-01-25,2,364
2023-01-26,2,364
2023-01-27,4,333
2023-01-28,5,358
2023-01-29,5,347
2023-01-30,4,372
2023-01-31,6,373
2023-02-01,2,397
2023-02-02,6,386
2023-02-03,4,362
2023-02-04,0,365
2023-02-05,0,357
2023-02-06,0,366
2023-02-07,3,385
2023-02-08,4,376
2023-02-09,6,345
2023-02-10,3,395
2023-02-11,2,354
2023-02-12,4,345
2023-02-13,5,370
2023-02-14,2,361
2023-02-15,6,352
2023-02-16,3,374
2023-02-17,1,354
2023-02-18,8,347
2023-02-19,1,346
2023-02-20,4,359
2023-02-21,4,357
2023-02-22,2,377
2023-02-23,2,352
2023-02-24,0,360
2023-02-25,4,337
2023-02-26,4,354
2023-02-27,4,378
2023-02-28,3,375
2023-03-01,2,349
2023-03-02,3,376
2023-03-03,9,371
2023-03-04,2,351
2023-03-05,2,350
2023-03-06,0,375
2023-03-07,3,358
2023-03-08,1,369
2023-03-09,3,349
2023-03-10,2,370
2023-03-11,20,367
2023-03-12,6,353
2023-03-13,1,364
2023-03-14,5,365
2023-03-15,4,346
2023-03-16,4,354
2023-03-17,2,355
2023-03-18,1,362
2023-03-19,5,339
2023-03-20,4,346
2023-03-21,8,367
2023-03-22,6,386
2023-03-23,3,366
2023-03-24,3,371
2023-03-25,3,358
2023-03-26,7,366
2023-03-27,3,356
2023-03-28,1,383
2023-03-29,3,342
2023-03-30,3,370
2023-03-31,4,363
2023-04-01,2,354
2023-04-02,5,355
2023-04-03,8,358
2023-04-04,3,379
2023-04-05,3,366
2023-04-06,5,374
2023-04-07,2,377
2023-04-08,1,368
2023-04-09,6,354
2023-04-10,3,365
2023-04-11,1,363
2023-04-12,1,381
2023-04-13,6,367
2023-04-14,3,363
2023-04-15,6,390
2023-04-16,9,358
2023-04-17,3,360
2023-04-18,6,372
2023-04-19,5,381
2023-04-20,2,376
2023-04-21,4,371
2023-04-22,4,372
2023-04-23,4,370
2023-04-24,4,373
2023-04-25,2,393
2023-04-26,4,371
2023-04-27,4,387
2023-04-28,3,364
2023-04-29,1,363
2023-04-30,7,362
2023-05-01,2,369
2023-05-02,177,397
2023-05-03,10,423
2023-05-04,5,444
2023-05-05,3,423
2023-05-06,13,398
2023-05-07,4,424
2023-05-08,5,424
2023-05-09,1,437
2023-05-10,6,436
2023-05-11,2,433
2023-05-12,3,431
2023-05-13,1,424
2023-05-14,1,406
2023-05-15,1,419
2023-05-16,6,432
2023-05-17,5,430
2023-05-18,2,446
2023-05-19,2,426
2023-05-20,2,422
2023-05-21,1,416
2023-05-22,1,411
2023-05-23,4,426
2023-05-24,2,416
2023-05-25,1,428
2023-05-26,5,437
2023-05-27,5,436
2023-05-28,5,428
2023-05-29,5,432
2023-05-30,1,421
2023-05-31,0,443
2023-06-01,1,431
2023-06-02,5,442
2023-06-03,2,417
2023-06-04,8,415
2023-06-05,6,437
2023-06-06,1,435
2023-06-07,4,434
2023-06-08,3,424
2023-06-09,1,436
2023-06-10,5,411
2023-06-11,2,417
2023-06-12,5,433
2023-06-13,46,439
2023-06-14,10,432
2023-06-15,3,446
2023-06-16,4,421
2023-06-17,4,433
2023-06-18,3,428
2023-06-19,5,430
2023-06-20,8,448
2023-06-21,1,462
2023-06-22,3,437
2023-06-23,2,436
2023-06-24,1,419
2023-06-25,3,425
2023-06-26,0,442
2023-06-27,4,442
2023-06-28,1,452
2023-06-29,5,461
2023-06-30,1,444
2023-07-01,2,437
2023-07-02,7,433
2023-07-03,0,421
2023-07-04,3,444
2023-07-05,1,432
2023-07-06,4,434
2023-07-07,7,427
2023-07-08,6,414
2023-07-09,1,420
2023-07-10,3,456
2023-07-11,6,434
2023-07-12,72,455
2023-07-13,17,424
2023-07-14,9,475
2023-07-15,9,433
2023-07-16,4,447
2023-07-17,2,475
2023-07-18,3,452
2023-07-19,5,456
2023-07-20,4,471
2023-07-21,2,453
2023-07-22,0,422
2023-07-23,3,454
2023-07-24,6,464
2023-07-25,2,484
2023-07-26,4,467
2023-07-27,2,490
2023-07-28,9,449
2023-07-29,6,476
2023-07-30,4,464
2023-07-31,8,456
2023-08-01,1,458
2023-08-02,2,472
2023-08-03,4,467
2023-08-04,5,478
2023-08-05,1,455
2023-08-06,1,474
2023-08-07,5,472
2023-08-08,6,458
2023-08-09,2,476
2023-08-10,1,468
2023-08-11,4,451
2023-08-12,4,462
2023-08-13,0,435
2023-08-14,3,476
2023-08-15,5,458
2023-08-16,3,463
2023-08-17,14,484
2023-08-18,5,486
2023-08-19,5,446
2023-08-20,4,453
2023-08-21,6,470
2023-08-22,2,441
2023-08-23,2,497
2023-08-24,4,441
2023-08-25,3,469
2023-08-26,4,440
2023-08-27,4,480
2023-08-28,2,470
2023-08-29,2,487
2023-08-30,4,463
2023-08-31,5,483
2023-09-01,1,465
2023-09-02,6,449
2023-09-03,6,456
2023-09-04,2,461
2023-09-05,1,469
2023-09-06,2,481
2023-09-07,7,460
2023-09-08,0,451
2023-09-09,4,463
2023-09-10,2,470
2023-09-11,3,479
2023-09-12,7,495
2023-09-13,7,492
2023-09-14,3,469
2023-09-15,1,446
2023-09-16,3,469
2023-09-17,0,470
2023-09-18,2,489
2023-09-19,4,490
2023-09-20,2,464
2023-09-21,2,490
2023-09-22,4,485
2023-09-23,2,472
2023-09-24,9,451
2023-09-25,6,498
2023-09-26,8,467
2023-09-27,8,466
2023-09-28,3,478
2023-09-29,1,475
2023-09-30,6,454
2023-10-01,8,484
2023-10-02,2,486
2023-10-03,5,463
2023-10-04,4,474
2023-10-05,4,472
2023-10-06,5,469
2023-10-07,2,447
2023-10-08,4,471
2023-10-09,4,452
2023-10-10,2,454
2023-10-11,0,483
2023-10-12,2,489
2023-10-13,5,481
2023-10-14,4,430
2023-10-15,3,453
2023-10-16,2,463
2023-10-17,3,456
2023-10-18,7,456
2023-10-19,1,472
2023-10-20,2,465
2023-10-21,2,459
2023-10-22,0,443
2023-10-23,3,474
2023-10-24,0,457
2023-10-25,1,449
2023-10-26,5,459
2023-10-27,5,462
2023-10-28,8,466
2023-10-29,1,475
2023-10-30,6,462
2023-10-31,2,484
2023-11-01,5,487
2023-11-02,10,517
2023-11-03,7,479
2023-11-04,7,492
2023-11-05,6,473
2023-11-06,4,482
2023-11-07,8,482
2023-11-08,6,486
2023-11-09,4,478
2023-11-10,9,493
2023-11-11,3,477
2023-11-12,1,468
2023-11-13,2,495
2023-11-14,5,488
2023-11-15,0,485
2023-11-16,2,503
2023-11-17,2,461
2023-11-18,4,485
2023-11-19,5,476
2023-11-20,2,485
2023-11-21,1,486
2023-11-22,3,435
2023-11-23,1,464
2023-11-24,3,493
2023-11-25,4,466
2023-11-26,2,465
2023-11-27,2,490
2023-11-28,5,478
2023-11-29,1,495
2023-11-30,0,492
2023-12-01,1,489
2023-12-02,2,482
2023-12-03,6,484
2023-12-04,8,454
2023-12-05,1,391
2023-12-06,3,376
2023-12-07,3,358
2023-12-08,6,617
2023-12-09,2,414
2023-12-10,4,358
2023-12-11,3,376
2023-12-12,4,398
2023-12-13,7,367
2023-12-14,4,365
2023-12-15,1,367
2023-12-16,2,380
2023-12-17,2,339
2023-12-18,4,382
2023-12-19,1,363
2023-12-20,1,376
2023-12-21,2,359
2023-12-22,1,385
2023-12-23,2,346
2023-12-24,5,351
2023-12-25,1,332
2023-12-26,3,341
2023-12-27,1,340
2023-12-28,2,350
2023-12-29,4,362
2023-12-30,3,342
2023-12-31,2,376
2024-01-01,6,360
2024-01-02,4,353
2024-01-03,1,384
2024-01-04,3,359
2024-01-05,2,382
2024-01-06,1,361
2024-01-07,2,351
2024-01-08,1,377
2024-01-09,3,357
2024-01-10,2,380
2024-01-11,5,372
2024-01-12,4,374
2024-01-13,2,382
2024-01-14,3,385
2024-01-15,3,395
2024-01-16,1,372
2024-01-17,3,380
2024-01-18,3,368
2024-01-19,3,360
2024-01-20,2,370
2024-01-21,4,358
2024-01-22,9,374
2024-01-23,6,465
2024-01-24,3,451
2024-01-25,3,440
2024-01-26,2,428
2024-01-27,2,423
2024-01-28,0,415
2024-01-29,4,448
2024-01-30,4,444
2024-01-31,4,440
2024-02-01,6,450
2024-02-02,4,436
2024-02-03,4,419
2024-02-04,8,420
2024-02-05,6,431
2024-02-06,4,458
2024-02-07,0,430
2024-02-08,3,427
2024-02-09,1,430
2024-02-10,4,412
2024-02-11,6,411
2024-02-12,3,430
2024-02-13,4,417
2024-02-14,1,411
2024-02-15,2,432
2024-02-16,1,409
2024-02-17,0,416
2024-02-18,1,394
2024-02-19,2,427
2024-02-20,3,417
2024-02-21,3,446
2024-02-22,1,411
2024-02-23,1,430
2024-02-24,0,428
2024-02-25,0,420
2024-02-26,2,426
2024-02-27,3,446
2024-02-28,1,437
2024-02-29,1,430
2024-03-01,2,429
2024-03-02,5,414
2024-03-03,5,438
2024-03-04,1,420
2024-03-05,0,440
2024-03-06,0,418
2024-03-07,2,418
2024-03-08,2,428
2024-03-09,3,430
2024-03-10,1,405
2024-03-11,3,415
2024-03-12,3,426
2024-03-13,1,419
2024-03-14,1,425
2024-03-15,1,430
2024-03-16,2,391
2024-03-17,0,421
2024-03-18,0,422
2024-03-19,2,429
2024-03-20,3,423
2024-03-21,1,446
2024-03-22,3,423
2024-03-23,0,437
2024-03-24,4,432
2024-03-25,2,426
2024-03-26,2,442
2024-03-27,3,405
2024-03-28,2,431
2024-03-29,1,432
2024-03-30,2,431
2024-03-31,4,401
2024-04-01,4,426
2024-04-02,5,430
2024-04-03,0,449
2024-04-04,1,431
2024-04-05,1,448
2024-04-06,1,438
2024-04-07,0,421
2024-04-08,2,431
2024-04-09,1,436
2024-04-10,1,451
2024-04-11,1,442
2024-04-12,1,451
2024-04-13,1,426
2024-04-14,4,463
2024-04-15,2,450
2024-04-16,2,457
2024-04-17,1,443
2024-04-18,4,440
2024-04-19,2,444
2024-04-20,4,425
2024-04-21,4,447
2024-04-22,0,454
2024-04-23,0,440
2024-04-24,3,447
2024-04-25,1,449
2024-04-26,3,433
2024-04-27,2,419
2024-04-28,0,427
2024-04-29,4,457
2024-04-30,0,451
2024-05-01,2,417
2024-05-02,1,425
2024-05-03,1,414
2024-05-04,4,426
2024-05-05,2,424
2024-05-06,0,435
2024-05-07,1,415
2024-05-08,1,427
2024-05-09,0,427
2024-05-10,0,422
2024-05-11,3,406
2024-05-12,0,410
2024-05-13,0,431
2024-05-14,0,13
